1487725201.22,25976,10.88,72362.0,-12.27,-13.15,-13.15,0,*69
1487725202.45,25977,10.88,72348.0,-12.27,-13.15,-13.15,0,*68
1487725203.68,25978,10.81,72358.5,-12.27,-13.15,-13.15,0,*67
1487725204.92,25979,10.81,72348.5,-12.27,-13.19,-13.15,0,*6A
1487725206.16,25980,10.88,72318.0,-12.27,-13.19,-13.15,0,*6C
1487725207.39,25981,10.88,72336.0,-12.27,-13.15,-13.15,0,*61
1487725208.62,25982,10.88,72304.8,-12.27,-13.15,-13.15,0,*62
1487725209.85,25983,10.81,72274.3,-12.27,-13.15,-13.15,0,*63
1487725211.08,25984,10.88,72292.8,-12.27,-13.15,-13.15,0,*64
1487725212.29,25985,10.88,72306.8,-12.29,-13.15,-13.15,0,*6B
1487725213.53,25986,10.88,72302.0,-12.27,-13.11,-13.11,0,*66
1487725214.77,25987,10.88,72316.5,-12.27,-13.11,-13.15,0,*63
1487725216.0,25988,10.81,72314.0,-12.27,-13.15,-13.11,0,*6C
1487725217.23,25989,10.81,72318.5,-12.27,-13.15,-13.15,0,*69
1487725218.44,25990,10.88,72316.0,-12.29,-13.15,-13.15,0,*6F
1487725219.65,25991,10.81,72310.3,-12.29,-13.15,-13.15,0,*6E
1487725220.89,25992,10.88,72318.0,-12.27,-13.11,-13.11,0,*63
1487725222.13,25993,10.81,72328.0,-12.27,-13.11,-13.15,0,*66
1487725223.36,25994,10.81,72328.3,-12.29,-13.11,-13.01,0,*6A
1487725224.58,25995,10.88,72330.3,-12.29,-13.11,-13.11,0,*6A
1487725225.83,25996,10.81,72328.3,-12.27,-13.15,-13.01,0,*62
1487725227.07,25997,10.88,72334.5,-12.27,-13.11,-13.15,0,*62
1487725228.31,25998,10.88,72346.8,-12.27,-13.11,-13.11,0,*69
1487725229.54,25999,10.81,72326.3,-12.27,-13.15,-13.11,0,*6C
1487725230.77,26000,10.88,72338.0,-12.27,-13.15,-13.15,0,*62
1487725232.01,26001,10.81,72314.5,-12.27,-13.15,-13.15,0,*63
1487725233.24,26002,10.81,72296.3,-12.27,-13.15,-13.15,0,*60
1487725234.47,26003,10.88,72310.8,-12.27,-13.11,-13.11,0,*61
1487725235.68,26004,10.81,72308.8,-12.29,-13.15,-13.15,0,*68
1487725236.92,26005,10.81,72292.3,-12.27,-13.11,-13.11,0,*67
1487725238.19,26006,10.88,72266.3,-12.27,-13.01,-12.97,0,*6A
1487725239.45,26007,10.88,72276.3,-12.27,-13.15,-13.01,0,*60
1487725240.73,26008,10.88,72290.8,-12.27,-13.01,-13.01,0,*6A
1487725241.97,26009,10.81,72276.8,-12.29,-13.11,-13.01,0,*64
1487725243.21,26010,10.88,72284.0,-12.27,-13.07,-12.97,0,*6B
1487725244.47,26011,10.88,72288.3,-12.27,-12.97,-13.01,0,*6C
1487725245.71,26012,10.88,72266.3,-12.29,-13.01,-13.11,0,*6E
1487725246.95,26013,10.81,72258.3,-12.27,-13.11,-13.11,0,*60
1487725248.21,26014,10.81,72256.3,-12.27,-13.11,-13.01,0,*66
1487725249.45,26015,10.88,72274.8,-12.27,-13.11,-13.11,0,*66
1487725250.71,26016,10.88,72294.8,-12.27,-13.11,-13.01,0,*64
1487725251.95,26017,10.88,72278.8,-12.27,-13.11,-12.97,0,*6B
1487725253.22,26018,10.88,72294.8,-12.27,-13.01,-13.11,0,*6A
1487725254.5,26019,10.88,72306.0,-12.27,-13.01,-13.01,0,*6A
1487725255.79,26020,10.88,72304.5,-12.27,-13.01,-13.01,0,*60
1487725257.07,26021,10.88,72312.5,-12.27,-13.01,-13.01,0,*61
1487725258.36,26022,10.88,72308.3,-12.27,-13.01,-13.01,0,*62
1487725259.63,26023,10.88,72312.5,-12.27,-13.01,-13.11,0,*62
1487725260.91,26024,10.88,72310.0,-12.27,-13.01,-13.01,0,*64
1487725262.15,26025,10.88,72318.8,-12.27,-13.11,-13.11,0,*65
1487725263.41,26026,10.88,72340.3,-12.27,-13.11,-13.01,0,*67
1487725264.64,26027,10.88,72354.0,-12.27,-13.15,-13.15,0,*67
1487725265.88,26028,10.88,72362.3,-12.27,-13.11,-13.15,0,*6C
1487725267.11,26029,10.88,72356.0,-12.23,-13.11,-13.11,0,*6D
1487725268.35,26030,10.88,72334.0,-12.23,-13.11,-13.23,0,*64
1487725269.59,26031,10.88,72334.5,-12.23,-13.23,-13.15,0,*61
1487725270.86,26032,10.88,72352.3,-12.27,-13.29,-13.19,0,*60
1487725272.11,26033,10.88,72372.0,-12.27,-13.19,-13.19,0,*62
1487725273.38,26034,10.88,72378.8,-12.27,-13.29,-13.19,0,*66
1487725274.63,26035,10.81,72372.3,-12.27,-13.19,-13.19,0,*64
1487725275.9,26036,10.81,72380.8,-12.27,-13.29,-13.19,0,*64
1487725277.13,26037,10.88,72330.5,-12.29,-13.19,-13.19,0,*68
1487725278.4,26038,10.81,72366.8,-12.27,-13.19,-13.29,0,*6A
1487725279.65,26039,10.88,72312.0,-12.27,-13.19,-13.19,0,*68
1487725280.88,26040,10.88,72308.3,-12.23,-13.15,-13.15,0,*62
1487725282.12,26041,10.81,72346.8,-12.27,-13.19,-13.19,0,*67
1487725283.37,26042,10.88,72364.3,-12.27,-13.19,-13.19,0,*64
1487725284.61,26043,10.81,72354.0,-12.27,-13.15,-13.15,0,*65
1487725285.84,26044,10.88,72354.5,-12.27,-13.15,-13.15,0,*62
1487725287.07,26045,10.88,72346.0,-12.27,-13.15,-13.15,0,*63
1487725288.31,26046,10.81,72342.3,-12.27,-13.11,-13.11,0,*60
1487725289.54,26047,10.88,72332.0,-12.27,-13.15,-13.11,0,*65
1487725290.77,26048,10.88,72328.5,-12.27,-13.15,-13.15,0,*6E
1487725291.98,26049,10.81,72336.3,-12.29,-13.15,-13.15,0,*61
1487725293.23,26050,10.88,72342.8,-12.27,-13.15,-13.19,0,*6B
1487725294.47,26051,10.81,72332.8,-12.27,-13.15,-13.19,0,*6A
1487725295.73,26052,10.88,72338.8,-12.27,-13.15,-13.29,0,*6A
1487725296.97,26053,10.88,72336.3,-12.27,-13.15,-13.19,0,*68
1487725298.2,26054,10.88,72344.5,-12.23,-13.11,-13.11,0,*67
1487725299.41,26055,10.88,72348.5,-12.29,-13.15,-13.15,0,*6C
1487725300.62,26056,10.88,72354.3,-12.29,-13.15,-13.15,0,*6F
1487725301.83,26057,10.88,72338.8,-12.29,-13.15,-13.15,0,*6E
1487725303.04,26058,10.88,72334.5,-12.29,-13.11,-13.15,0,*65
1487725304.3,26059,10.88,72350.0,-12.27,-13.11,-13.01,0,*6F
1487725305.56,26060,10.88,72344.8,-12.27,-13.11,-13.01,0,*65
1487725306.8,26061,10.88,72336.8,-12.29,-13.11,-13.01,0,*6A
1487725308.09,26062,10.88,72362.8,-12.27,-13.01,-13.01,0,*66
1487725309.32,26063,10.81,72360.0,-12.23,-13.07,-12.97,0,*6B
1487725310.54,26064,10.88,72356.3,-12.29,-13.11,-12.97,0,*61
1487725311.83,26065,10.88,72358.5,-12.27,-13.01,-13.01,0,*61
1487725313.11,26066,10.88,72356.5,-12.27,-13.01,-13.01,0,*62
1487725314.38,26067,10.81,72366.5,-12.27,-12.97,-13.01,0,*6D
1487725315.62,26068,10.88,72384.0,-12.27,-12.97,-12.97,0,*6C
1487725316.88,26069,10.88,72384.5,-12.29,-13.01,-13.01,0,*63
1487725318.12,26070,10.88,72382.3,-12.27,-12.97,-12.97,0,*65
1487725319.39,26071,10.88,72402.8,-12.27,-13.01,-12.97,0,*6A
1487725320.68,26072,10.81,72400.8,-12.27,-13.01,-13.01,0,*67
1487725321.95,26073,10.88,72392.8,-12.27,-13.01,-13.11,0,*67
1487725323.18,26074,10.88,72368.5,-12.23,-13.11,-13.11,0,*65
1487725324.42,26075,10.88,72372.3,-12.23,-13.11,-13.11,0,*64
1487725325.65,26076,10.88,72388.8,-12.23,-13.11,-13.11,0,*67
1487725326.89,26077,10.81,72376.5,-12.23,-13.11,-13.11,0,*66
1487725328.13,26078,10.81,72396.0,-12.23,-13.11,-13.11,0,*69
1487725329.36,26079,10.88,72402.5,-12.27,-13.15,-13.11,0,*68
1487725330.59,26080,10.88,72388.8,-12.27,-13.15,-13.15,0,*6A
1487725331.83,26081,10.88,72356.3,-12.27,-13.11,-13.15,0,*6F
1487725333.04,26082,10.81,72378.0,-12.29,-13.15,-13.11,0,*62
1487725334.27,26083,10.81,72400.0,-12.27,-13.11,-13.15,0,*6D
1487725335.51,26084,10.88,72402.0,-12.27,-13.15,-13.15,0,*6E
1487725336.74,26085,10.88,72328.3,-12.27,-13.15,-13.15,0,*6F
1487725337.97,26086,10.81,72320.5,-12.27,-13.15,-13.15,0,*6C
1487725339.2,26087,10.88,72318.5,-12.27,-13.15,-13.15,0,*6D
1487725340.44,26088,10.88,72328.3,-12.27,-13.15,-13.11,0,*66
1487725341.67,26089,10.81,72320.3,-12.27,-13.15,-13.15,0,*63
1487725342.9,26090,10.81,72318.8,-12.27,-13.11,-13.15,0,*6F
1487725344.14,26091,10.88,72324.0,-12.27,-13.11,-13.15,0,*6E
1487725345.38,26092,10.81,72326.3,-12.27,-13.11,-13.15,0,*6D
1487725346.61,26093,10.88,72322.3,-12.27,-13.11,-13.11,0,*68
1487725347.84,26094,10.88,72308.5,-12.27,-13.15,-13.15,0,*6F
1487725349.08,26095,10.88,72314.0,-12.27,-13.15,-13.15,0,*6E
1487725350.31,26096,10.88,72304.5,-12.27,-13.15,-13.15,0,*6D
1487725351.54,26097,10.88,72302.3,-12.27,-13.15,-13.11,0,*68
1487725352.77,26098,10.88,72290.8,-12.27,-13.15,-13.15,0,*63
1487725354.01,26099,10.88,72294.0,-12.27,-13.15,-13.15,0,*62
1487725355.24,26100,10.88,72268.5,-12.27,-13.15,-13.15,0,*63
1487725356.47,26101,10.81,72258.3,-12.27,-13.15,-13.15,0,*62
1487725357.71,26102,10.88,72272.3,-12.27,-13.15,-13.11,0,*65
1487725358.94,26103,10.81,72270.3,-12.27,-13.15,-13.15,0,*60
1487725360.18,26104,10.88,72270.5,-12.27,-13.11,-13.11,0,*67
1487725361.41,26105,10.88,72280.8,-12.27,-13.11,-13.11,0,*66
1487725362.65,26106,10.88,72278.0,-12.27,-13.11,-13.11,0,*65
1487725363.91,26107,10.88,72296.0,-12.27,-13.11,-13.01,0,*65
1487725365.2,26108,10.88,72298.8,-12.27,-13.01,-13.01,0,*6B
1487725366.48,26109,10.81,72280.8,-12.27,-13.01,-13.01,0,*6A
1487725367.75,26110,10.88,72298.8,-12.27,-12.97,-13.01,0,*6C
1487725368.99,26111,10.81,72284.8,-12.29,-13.01,-12.97,0,*63
1487725370.28,26112,10.88,72272.0,-12.27,-13.01,-13.01,0,*60
1487725371.52,26113,10.88,72284.8,-12.23,-12.97,-12.97,0,*65
1487725372.76,26114,10.81,72286.5,-12.23,-12.97,-12.93,0,*66
1487725374.0,26115,10.88,72300.5,-12.23,-12.97,-12.97,0,*63
1487725375.24,26116,10.88,72288.8,-12.23,-12.93,-12.93,0,*60
1487725376.48,26117,10.88,72300.3,-12.23,-12.93,-12.97,0,*65
1487725377.75,26118,10.81,72294.0,-12.23,-12.93,-12.83,0,*6F
1487725379.03,26119,10.81,72294.0,-12.23,-12.83,-12.83,0,*6F
1487725380.27,26120,10.88,72302.0,-12.23,-12.93,-12.93,0,*65
1487725381.54,26121,10.81,72280.8,-12.23,-12.93,-12.83,0,*65
1487725382.8,26122,10.81,72312.8,-12.23,-12.93,-12.83,0,*66
1487725384.07,26123,10.88,72306.3,-12.23,-12.93,-12.83,0,*67
1487725385.31,26124,10.88,72310.8,-12.23,-12.93,-12.93,0,*61
1487725386.55,26125,10.88,72308.3,-12.23,-12.97,-12.93,0,*64
1487725387.79,26126,10.88,72308.8,-12.23,-12.97,-12.97,0,*63
1487725389.03,26127,10.88,72306.3,-12.23,-13.07,-12.97,0,*6A
1487725390.26,26128,10.88,72336.0,-12.23,-12.97,-13.07,0,*65
1487725391.5,26129,10.88,72332.3,-12.23,-13.07,-12.97,0,*64
1487725392.74,26130,10.81,72324.5,-12.23,-13.07,-13.11,0,*63
1487725393.97,26131,10.81,72324.3,-12.23,-13.07,-13.07,0,*65
1487725395.21,26132,10.88,72360.5,-12.23,-13.11,-13.11,0,*66
1487725396.44,26133,10.88,72350.5,-12.23,-13.07,-13.07,0,*67
1487725397.67,26134,10.88,72318.5,-12.23,-13.11,-13.07,0,*67
1487725398.91,26135,10.81,72296.5,-12.23,-13.11,-13.11,0,*61
1487725400.15,26136,10.88,72288.5,-12.23,-13.11,-13.11,0,*62
1487725401.38,26137,10.88,72254.3,-12.23,-13.11,-13.07,0,*64
1487725402.61,26138,10.88,72278.0,-12.23,-13.15,-13.11,0,*68
1487725403.85,26139,10.88,72306.8,-12.23,-13.15,-13.11,0,*69
1487725405.08,26140,10.88,72302.5,-12.23,-13.11,-13.07,0,*64
1487725406.31,26141,10.88,72286.8,-12.23,-13.07,-13.07,0,*62
1487725407.55,26142,10.88,72248.8,-12.23,-13.11,-13.11,0,*61
1487725408.79,26143,10.81,72260.5,-12.23,-13.07,-13.11,0,*67
1487725410.02,26144,10.81,72258.5,-12.23,-13.11,-13.07,0,*60
1487725411.25,26145,10.88,72284.5,-12.23,-13.07,-13.07,0,*66
1487725412.49,26146,10.81,72276.8,-12.23,-13.11,-13.07,0,*62
1487725413.72,26147,10.81,72258.5,-12.23,-13.11,-13.11,0,*64
1487725414.95,26148,10.81,72244.3,-12.23,-13.11,-13.07,0,*6C
1487725416.19,26149,10.88,72308.5,-12.23,-13.11,-13.11,0,*6A
1487725417.43,26150,10.88,72312.3,-12.23,-12.97,-12.97,0,*62
1487725418.67,26151,10.81,72300.5,-12.23,-12.97,-12.97,0,*63
1487725419.91,26152,10.81,72318.5,-12.23,-13.07,-13.07,0,*60
1487725421.14,26153,10.81,72316.5,-12.23,-12.97,-13.07,0,*69
1487725422.38,26154,10.88,72302.3,-12.23,-13.07,-12.97,0,*6E
1487725423.62,26155,10.88,72316.0,-12.23,-13.07,-12.97,0,*6F
1487725424.86,26156,10.81,72322.5,-12.23,-12.97,-12.93,0,*60
1487725426.12,26157,10.81,72298.5,-12.23,-12.93,-12.83,0,*64
1487725427.36,26158,10.81,72294.5,-12.23,-12.97,-12.93,0,*6E
1487725428.61,26159,10.81,72316.5,-12.23,-12.93,-12.97,0,*6F
1487725429.85,26160,10.88,72302.0,-12.23,-12.97,-12.97,0,*61
1487725431.09,26161,10.88,72296.8,-12.23,-12.97,-12.97,0,*60
1487725432.33,26162,10.88,72310.8,-12.23,-12.97,-12.97,0,*63
1487725433.56,26163,10.81,72300.5,-12.23,-13.11,-13.07,0,*65
1487725434.8,26164,10.81,72296.8,-12.23,-13.11,-13.07,0,*62
1487725436.03,26165,10.81,72296.5,-12.23,-13.11,-13.11,0,*64
1487725437.27,26166,10.81,72302.3,-12.23,-13.11,-13.11,0,*67
1487725438.5,26167,10.81,72294.8,-12.23,-13.11,-13.11,0,*66
1487725439.74,26168,10.81,72304.8,-12.23,-13.11,-13.15,0,*6D
1487725440.97,26169,10.81,72296.3,-12.23,-13.11,-13.15,0,*6C
1487725442.2,26170,10.81,72286.5,-12.23,-13.11,-13.15,0,*64
1487725443.44,26171,10.81,72288.3,-12.23,-13.11,-13.23,0,*60
1487725444.67,26172,10.81,72294.3,-12.23,-13.15,-13.15,0,*62
1487725445.9,26173,10.88,72298.8,-12.23,-13.11,-13.15,0,*67
1487725447.14,26174,10.81,72264.3,-12.23,-13.11,-13.11,0,*64
1487725448.37,26175,10.88,72286.3,-12.23,-13.11,-13.11,0,*65
1487725449.61,26176,10.88,72290.3,-12.23,-13.11,-13.11,0,*66
1487725450.84,26177,10.88,72292.0,-12.23,-13.11,-13.07,0,*60
1487725452.08,26178,10.88,72272.5,-12.23,-13.11,-13.11,0,*68
1487725453.31,26179,10.81,72288.3,-12.23,-13.11,-13.07,0,*6E
1487725454.55,26180,10.81,72278.3,-12.23,-13.11,-13.11,0,*6F
1487725455.79,26181,10.88,72280.3,-12.23,-13.11,-13.11,0,*6E
1487725457.02,26182,10.88,72292.8,-12.23,-13.07,-13.07,0,*6D
1487725458.25,26183,10.88,72300.3,-12.23,-13.11,-13.07,0,*6B
1487725459.49,26184,10.81,72314.0,-12.23,-13.11,-13.11,0,*6B
1487725460.72,26185,10.81,72314.8,-12.23,-13.11,-13.11,0,*6A
1487725461.96,26186,10.81,72330.3,-12.23,-13.11,-13.11,0,*69
1487725463.2,26187,10.81,72322.5,-12.23,-13.07,-13.11,0,*6F
1487725464.43,26188,10.88,72330.8,-12.23,-13.07,-13.07,0,*67
1487725465.67,26189,10.88,72332.8,-12.23,-13.11,-13.11,0,*66
1487725466.9,26190,10.81,72324.8,-12.23,-13.11,-13.11,0,*6E
1487725468.14,26191,10.88,72324.3,-12.23,-13.07,-13.11,0,*68
1487725469.37,26192,10.81,72324.3,-12.23,-13.11,-13.11,0,*6C
1487725470.61,26193,10.81,72330.8,-12.23,-13.11,-13.11,0,*6D
1487725471.85,26194,10.88,72344.3,-12.23,-13.11,-13.11,0,*6A
1487725473.08,26195,10.81,72362.8,-12.23,-13.15,-13.15,0,*6B
1487725474.31,26196,10.88,72356.8,-12.23,-13.23,-13.15,0,*6D
1487725475.55,26197,10.81,72352.8,-12.23,-13.23,-13.23,0,*69
1487725476.82,26198,10.81,72354.0,-12.23,-13.23,-13.29,0,*6C
1487725478.08,26199,10.88,72344.5,-12.23,-13.23,-13.29,0,*6D
1487725479.37,26200,10.88,72344.3,-12.27,-13.33,-13.33,0,*60
1487725480.66,26201,10.88,72362.8,-12.27,-13.33,-13.29,0,*6A
1487725481.95,26202,10.88,72358.0,-12.27,-13.33,-13.33,0,*62
1487725483.19,26203,10.81,72360.3,-12.23,-13.23,-13.23,0,*67
1487725484.48,26204,10.81,72386.3,-12.27,-13.33,-13.33,0,*64
1487725485.77,26205,10.88,72372.3,-12.27,-13.33,-13.33,0,*65
1487725487.05,26206,10.88,72326.3,-12.27,-13.29,-13.29,0,*66
1487725488.34,26207,10.81,72376.3,-12.27,-13.33,-13.33,0,*67
1487725489.61,26208,10.81,72380.5,-12.29,-13.29,-13.33,0,*6D
1487725490.9,26209,10.81,72380.3,-12.27,-13.33,-13.33,0,*69
1487725492.17,26210,10.88,72370.5,-12.29,-13.33,-13.33,0,*6F
1487725493.43,26211,10.88,72358.5,-12.27,-13.43,-13.33,0,*67
1487725494.72,26212,10.81,72352.0,-12.27,-13.33,-13.33,0,*63
1487725495.99,26213,10.88,72360.0,-12.29,-13.29,-13.33,0,*67
1487725497.28,26214,10.81,72318.8,-12.27,-13.29,-13.33,0,*6E
1487725498.55,26215,10.81,72316.0,-12.29,-13.29,-13.33,0,*61
1487725499.84,26216,10.88,72308.3,-12.27,-13.33,-13.33,0,*67
1487725501.11,26217,10.88,72308.0,-12.29,-13.29,-13.29,0,*68
1487725502.37,26218,10.81,72280.3,-12.29,-13.29,-13.29,0,*67
1487725503.66,26219,10.88,72298.5,-12.27,-13.29,-13.29,0,*68
1487725504.91,26220,10.81,72336.5,-12.27,-13.19,-13.19,0,*62
1487725506.14,26221,10.81,72358.5,-12.29,-13.19,-13.19,0,*6D
1487725507.4,26222,10.81,72352.3,-12.29,-13.29,-13.29,0,*6E
1487725508.65,26223,10.81,72332.8,-12.29,-13.19,-13.29,0,*6C
1487725509.91,26224,10.81,72322.8,-12.29,-13.33,-13.29,0,*63
1487725511.18,26225,10.88,72332.0,-12.29,-13.33,-13.33,0,*69
1487725512.41,26226,10.81,72324.8,-12.29,-13.33,-13.43,0,*6D
1487725513.66,26227,10.88,72324.0,-12.29,-13.19,-13.33,0,*63
1487725514.89,26228,10.88,72326.5,-12.29,-13.19,-13.19,0,*64
1487725516.11,26229,10.88,72324.0,-12.29,-13.19,-13.19,0,*65
1487725517.34,26230,10.81,72336.5,-12.29,-13.19,-13.19,0,*6D
1487725518.57,26231,10.88,72334.8,-12.29,-13.19,-13.19,0,*6C
1487725519.79,26232,10.81,72334.3,-12.29,-13.19,-13.19,0,*6F
1487725521.02,26233,10.81,72332.8,-12.29,-13.19,-13.19,0,*6E
1487725522.29,26234,10.88,72314.8,-12.29,-13.29,-13.29,0,*69
1487725523.51,26235,10.81,72290.8,-12.29,-13.19,-13.19,0,*68
1487725524.75,26236,10.81,72300.8,-12.29,-13.19,-13.29,0,*68
1487725526.02,26237,10.81,72308.3,-12.29,-13.29,-13.33,0,*61
1487725527.29,26238,10.81,72294.5,-12.31,-13.47,-13.37,0,*6B
1487725528.53,26239,10.88,72304.3,-12.31,-13.47,-13.51,0,*6A
1487725529.78,26240,10.88,72312.8,-12.31,-13.51,-13.51,0,*63
1487725531.05,26241,10.88,72330.5,-12.31,-13.51,-13.61,0,*61
1487725532.35,26242,10.81,72318.5,-12.31,-13.61,-13.61,0,*61
1487725533.63,26243,10.88,72336.0,-12.31,-13.51,-13.61,0,*63
1487725534.86,26244,10.81,72350.5,-12.33,-13.47,-13.61,0,*61
1487725536.13,26245,10.88,72298.5,-12.31,-13.61,-13.51,0,*65
1487725537.37,26246,10.88,72306.8,-12.31,-13.47,-13.51,0,*62
1487725538.57,26247,10.88,72292.3,-12.33,-13.47,-13.47,0,*66
1487725539.84,26248,10.88,72286.3,-12.33,-13.37,-13.37,0,*69
1487725541.1,26249,10.88,72294.8,-12.33,-13.33,-13.33,0,*68
1487725542.32,26250,10.81,72304.5,-12.33,-13.23,-13.23,0,*60
1487725543.53,26251,10.81,72316.0,-12.33,-13.23,-13.23,0,*61
1487725544.78,26252,10.81,72310.0,-12.31,-13.23,-13.23,0,*60
1487725546.03,26253,10.88,72328.5,-12.31,-13.23,-13.23,0,*61
1487725547.24,26254,10.88,72338.0,-12.33,-13.23,-13.23,0,*64
1487725548.49,26255,10.88,72364.0,-12.31,-13.23,-13.23,0,*67
1487725549.74,26256,10.88,72368.8,-12.31,-13.19,-13.23,0,*6D
1487725550.99,26257,10.81,72352.3,-12.31,-13.19,-13.19,0,*65
1487725552.24,26258,10.81,72346.3,-12.31,-13.15,-13.19,0,*66
1487725553.48,26259,10.88,72324.8,-12.31,-13.19,-13.15,0,*67
1487725554.72,26260,10.81,72312.5,-12.31,-13.15,-13.15,0,*61
1487725555.95,26261,10.81,72316.3,-12.31,-13.15,-13.15,0,*60
1487725557.19,26262,10.88,72340.5,-12.31,-13.15,-13.15,0,*63
1487725558.43,26263,10.88,72346.3,-12.31,-13.19,-13.15,0,*6E
1487725559.67,26264,10.88,72338.3,-12.31,-13.07,-13.15,0,*66
1487725560.93,26265,10.81,72352.8,-12.31,-13.07,-13.01,0,*62
1487725562.17,26266,10.88,72340.8,-12.31,-13.07,-13.07,0,*67
1487725563.41,26267,10.81,72332.3,-12.33,-13.07,-13.01,0,*62
1487725564.65,26268,10.81,72324.5,-12.31,-13.07,-13.07,0,*69
1487725565.91,26269,10.81,72328.0,-12.33,-13.01,-13.01,0,*6A
1487725567.14,26270,10.81,72330.3,-12.33,-13.07,-13.01,0,*64
1487725568.43,26271,10.81,72350.8,-12.31,-13.01,-13.01,0,*61
1487725569.67,26272,10.81,72348.0,-12.33,-13.01,-13.07,0,*66
1487725570.91,26273,10.81,72350.3,-12.31,-13.07,-13.07,0,*63
1487725572.17,26274,10.81,72360.5,-12.31,-13.01,-13.07,0,*62
1487725573.41,26275,10.81,72358.0,-12.31,-13.07,-13.07,0,*65
1487725574.66,26276,10.81,72338.5,-12.31,-13.15,-13.19,0,*6A
1487725575.87,26277,10.81,72316.0,-12.29,-13.11,-13.11,0,*6E
1487725577.12,26278,10.81,72326.0,-12.31,-13.19,-13.07,0,*67
1487725578.35,26279,10.88,72318.0,-12.31,-13.15,-13.15,0,*69
1487725579.57,26280,10.88,72310.3,-12.29,-13.11,-13.15,0,*62
1487725580.77,26281,10.81,72296.5,-12.29,-13.15,-13.15,0,*67
1487725582.02,26282,10.81,72316.5,-12.31,-13.19,-13.15,0,*61
1487725583.23,26283,10.81,72310.0,-12.29,-13.11,-13.11,0,*65
1487725584.5,26284,10.88,72318.0,-12.31,-13.01,-13.15,0,*6E
1487725585.74,26285,10.81,72326.8,-12.31,-13.07,-13.07,0,*6A
1487725587.0,26286,10.81,72310.8,-12.29,-13.01,-13.01,0,*60
1487725588.25,26287,10.88,72310.3,-12.29,-13.01,-13.11,0,*60
1487725589.48,26288,10.88,72300.8,-12.31,-13.07,-13.15,0,*64
1487725590.69,26289,10.81,72290.3,-12.29,-13.15,-13.15,0,*6F
1487725591.9,26290,10.81,72288.8,-12.29,-13.15,-13.15,0,*67
1487725593.11,26291,10.88,72284.0,-12.29,-13.15,-13.15,0,*66
1487725594.37,26292,10.81,72294.0,-12.31,-13.19,-13.19,0,*6C
1487725595.58,26293,10.81,72296.5,-12.33,-13.19,-13.23,0,*66
1487725596.83,26294,10.81,72276.3,-12.31,-13.23,-13.23,0,*6A
1487725598.08,26295,10.81,72240.0,-12.31,-13.23,-13.23,0,*6B
1487725599.32,26296,10.81,72296.3,-12.31,-13.23,-13.23,0,*68
1487725600.59,26297,10.88,72292.8,-12.31,-13.33,-13.23,0,*68
1487725601.83,26298,10.81,72298.8,-12.31,-13.23,-13.15,0,*63
1487725603.09,26299,10.88,72294.3,-12.31,-13.19,-13.19,0,*67
1487725604.29,26300,10.81,72310.8,-12.33,-13.15,-13.15,0,*64
1487725605.53,26301,10.81,72300.3,-12.31,-13.15,-13.15,0,*67
1487725606.74,26302,10.81,72310.0,-12.29,-13.11,-13.11,0,*6D
1487725607.99,26303,10.81,72318.8,-12.29,-13.01,-13.11,0,*6D
1487725609.25,26304,10.88,72332.0,-12.29,-13.01,-13.01,0,*6B
1487725610.51,26305,10.81,72322.3,-12.31,-13.07,-13.01,0,*65
1487725611.75,26306,10.88,72326.0,-12.33,-13.07,-13.01,0,*64
1487725613.01,26307,10.81,72328.8,-12.31,-13.07,-13.01,0,*67
1487725614.27,26308,10.88,72332.8,-12.29,-13.01,-13.01,0,*67
1487725615.51,26309,10.81,72330.5,-12.31,-13.07,-13.07,0,*6F
1487725616.8,26310,10.81,72340.3,-12.31,-13.01,-13.01,0,*67
1487725618.07,26311,10.81,72326.0,-12.31,-13.01,-13.07,0,*60
1487725619.34,26312,10.81,72314.5,-12.31,-13.01,-13.07,0,*63
1487725620.55,26313,10.81,72336.8,-12.29,-13.07,-13.07,0,*6D
1487725621.77,26314,10.88,72392.0,-12.29,-12.97,-12.97,0,*6A
1487725623.03,26315,10.88,72370.0,-12.29,-13.01,-13.01,0,*6B
1487725624.27,26316,10.81,72356.3,-12.29,-12.97,-13.01,0,*66
1487725625.51,26317,10.88,72336.0,-12.29,-13.11,-13.01,0,*68
1487725626.75,26318,10.81,72322.5,-12.29,-13.01,-13.15,0,*63
1487725627.99,26319,10.81,72366.8,-12.29,-13.01,-13.11,0,*66
1487725629.23,26320,10.88,72364.3,-12.29,-13.01,-13.11,0,*6C
1487725630.47,26321,10.88,72362.0,-12.29,-13.01,-13.11,0,*6D
1487725631.74,26322,10.81,72350.8,-12.29,-13.01,-13.01,0,*6F
1487725632.95,26323,10.81,72368.5,-12.29,-13.11,-13.15,0,*6A
1487725634.17,26324,10.81,72360.0,-12.29,-13.11,-13.11,0,*69
1487725635.38,26325,10.81,72344.3,-12.29,-13.11,-13.11,0,*68
1487725636.59,26326,10.81,72354.3,-12.29,-13.15,-13.11,0,*6F
1487725637.81,26327,10.88,72342.3,-12.29,-13.15,-13.11,0,*6E
1487725639.05,26328,10.81,72332.5,-12.31,-13.19,-13.15,0,*60
1487725640.26,26329,10.88,72326.3,-12.29,-13.15,-13.11,0,*60
1487725641.51,26330,10.88,72324.5,-12.31,-13.19,-13.19,0,*65
1487725642.72,26331,10.88,72330.3,-12.29,-13.15,-13.15,0,*6D
1487725643.93,26332,10.81,72318.0,-12.29,-13.15,-13.15,0,*6E
1487725645.14,26333,10.88,72314.0,-12.29,-13.15,-13.15,0,*6F
1487725646.35,26334,10.88,72266.8,-12.29,-13.15,-13.15,0,*68
1487725647.56,26335,10.88,72276.0,-12.29,-13.15,-13.15,0,*69
1487725648.81,26336,10.88,72302.5,-12.31,-13.19,-13.19,0,*63
1487725650.07,26337,10.81,72274.5,-12.31,-13.19,-13.19,0,*62
1487725651.27,26338,10.81,72290.8,-12.29,-13.15,-13.15,0,*64
1487725652.49,26339,10.81,72260.3,-12.29,-13.11,-13.15,0,*61
1487725653.69,26340,10.81,72182.3,-12.29,-13.15,-13.15,0,*6B
1487725654.95,26341,10.81,72256.8,-12.31,-13.19,-13.19,0,*63
1487725656.19,26342,10.81,72304.3,-12.31,-13.15,-13.19,0,*6C
1487725657.45,26343,10.81,72250.3,-12.31,-13.19,-13.19,0,*61
1487725658.7,26344,10.81,72252.3,-12.31,-13.19,-13.19,0,*66
1487725659.96,26345,10.81,72276.3,-12.31,-13.19,-13.19,0,*67
1487725661.16,26346,10.81,72300.5,-12.29,-13.15,-13.15,0,*6D
1487725662.37,26347,10.88,72308.5,-12.29,-13.15,-13.15,0,*6C
1487725663.63,26348,10.88,72312.0,-12.31,-13.19,-13.19,0,*6A
1487725664.88,26349,10.81,72298.5,-12.31,-13.19,-13.19,0,*6B
1487725666.09,26350,10.81,72298.8,-12.29,-13.15,-13.15,0,*6A
1487725667.31,26351,10.81,72308.3,-12.29,-13.19,-13.19,0,*6B
1487725668.54,26352,10.81,72306.3,-12.29,-13.19,-13.19,0,*68
1487725669.81,26353,10.81,72320.5,-12.31,-13.33,-13.23,0,*61
1487725671.06,26354,10.88,72330.5,-12.31,-13.23,-13.23,0,*67
1487725672.3,26355,10.88,72326.0,-12.31,-13.23,-13.23,0,*66
1487725673.52,26356,10.81,72336.0,-12.33,-13.23,-13.23,0,*67
1487725674.77,26357,10.81,72338.5,-12.31,-13.23,-13.23,0,*64
1487725676.04,26358,10.81,72316.8,-12.31,-13.23,-13.33,0,*6A
1487725677.26,26359,10.81,72314.3,-12.33,-13.23,-13.23,0,*68
1487725678.5,26360,10.81,72308.0,-12.31,-13.23,-13.23,0,*60
1487725679.75,26361,10.81,72332.0,-12.31,-13.23,-13.23,0,*61
1487725680.99,26362,10.88,72334.3,-12.31,-13.23,-13.23,0,*62
1487725682.24,26363,10.81,72314.8,-12.31,-13.23,-13.23,0,*63
1487725683.51,26364,10.88,72304.5,-12.31,-13.23,-13.33,0,*65
1487725684.73,26365,10.88,72298.3,-12.33,-13.23,-13.23,0,*67
1487725685.98,26366,10.81,72268.3,-12.31,-13.23,-13.23,0,*66
1487725687.23,26367,10.88,72286.8,-12.31,-13.23,-13.23,0,*67
1487725688.47,26368,10.81,72274.8,-12.31,-13.23,-13.23,0,*68